Terug naar catalogus

STARLINK-11281

ActiefCommunicatieVLEO
NORAD 60996·PAYLOAD·🇺🇸 United States

Gelanceerd Sep 5, 2024 vanaf Cape Canaveral Space Force Station

Loading…

Volgende Passages (komende 24 uur)

TLE

VersSource: CelesTrak SupGP

Epoch: Sep 15, 2026, 03:07 UTC

1 60996C 24158G   26258.13034722 -.00079125  00000+0 -65150-3 0  2588
2 60996  53.1565  67.5743 0001094  80.0928   2.7156 15.69759537    19

Volg STARLINK-11281 in realtime met AllMySat

Download on the App Store